Location: Arrodets-la-Barthe
(43.0306°N, 0.2829°E)
Time: 08:45:31
(UTC+00:00)

CUBEBUG 2 - Pass Details

Date: 03 April 2023
Orbit: 577 x 685 km, 97.8° (Epoch: 02 June)

Event Time Altitude Azimuth Distance (km) Brightness Sun altitude
Rises 02:25:11 0° 14° (NNE) 3,061 ? -32.0°
Reaches altitude 10° 02:27:28 10° 16° (NNE) 2,133 ? -31.7°
Enters shadow 02:30:25 38° 25° (NNE) 1,029 ? -31.3°
